Orbital Elements at Epoch 2459000.5 (2020-May-31.0) TDB
Reference: JPL 25 (heliocentric ecliptic J2000)
Element | Value | Uncertainty (1-sigma) | Units |
e | .1299449499425819 | 4.6237e-08 | |
a | 2.280928956887444 | 8.0453e-09 | au |
q | 1.98453375776212 | 1.0377e-07 | au |
i | 5.636229931301934 | 4.6832e-06 | deg |
node | 343.4238168954027 | 3.5579e-05 | deg |
peri | 47.51072109486182 | 4.0705e-05 | deg |
M | 60.89989382477173 | 1.6364e-05 | deg |
tp | 2458787.646841192834 (2019-Oct-31.14684119) | 5.7487e-05 | TDB |
period | 1258.247467410373 3.44 | 6.6571e-06 1.823e-08 | d yr |
n | .2861122389071237 | 1.5138e-09 | deg/d |
Q | 2.577324156012768 | 9.0907e-09 | au |
|
| | Orbit Determination Parameters
Additional Information
|